Wind_Speed
44 45 46 47 48 48 49 50 50 49 50 50 51 51 52 53 53 54 53 53 53 54 54 54 55 55 56 56 56 55 55 56 56 54 54 54 55 55 56 56 57 56 56
45 46 47 47 48 48 49 49 49 50 51 51 52 52 53 53 53 53 53 53 53 54 54 55 55 56 55 54 55 55 55 55 55 54 52 53 54 55 56 55 55 55 55
46 46 47 47 48 48 49 50 50 50 51 51 52 52 52 53 53 53 52 53 53 53 54 54 55 55 55 54 54 54 54 54 54 53 52 52 53 54 55 55 55 55 54
45 46 46 47 47 48 49 50 50 50 51 51 52 52 53 53 53 53 53 53 53 53 53 53 53 53 53 53 53 53 53 53 53 53 52 52 52 53 53 53 53 54 53
45 45 46 46 47 48 49 49 50 51 51 51 52 53 53 53 53 53 53 53 53 52 52 51 51 52 53 53 53 52 53 53 52 52 52 52 51 51 52 52 52 52 51
44 45 45 46 47 48 48 49 50 50 51 51 51 51 52 52 53 53 53 52 52 51 50 50 50 51 52 53 52 52 52 52 51 51 51 51 50 50 50 50 50 51 50
44 45 45 46 47 47 48 48 49 49 49 49 50 50 51 51 51 52 52 51 50 49 49 50 50 51 52 52 51 51 51 51 50 50 50 49 49 49 49 48 48 48 48
44 45 46 47 47 47 47 47 48 48 49 49 49 50 50 51 51 50 50 48 48 48 49 49 50 50 51 51 51 50 49 49 49 50 49 47 47 46 47 46 46 45 44
44 45 46 46 45 45 45 46 47 47 47 47 49 49 49 48 48 48 48 47 47 48 48 49 49 49 49 50 49 49 48 48 48 48 46 45 44 44 44 44 43 42 41
43 44 44 44 44 44 45 45 45 45 45 46 47 47 47 46 46 46 46 46 46 46 46 47 48 48 48 47 47 47 47 47 46 45 44 44 43 42 41 41 40 39 38
42 43 43 43 43 43 43 43 43 43 45 45 45 45 45 45 45 45 45 45 45 44 44 45 45 46 45 45 45 45 45 44 43 42 41 40 39 38 37 37 37 36 36
42 42 42 42 42 42 42 42 42 43 44 44 43 43 43 43 43 43 44 44 45 44 44 44 44 43 42 42 42 42 41 40 39 37 36 36 35 35 34 34 33 33 32
41 41 41 41 41 41 41 41 42 42 43 42 42 42 42 43 43 43 44 44 43 44 44 44 42 41 40 39 38 37 37 36 35 35 34 34 33 33 32 32 31 30 30
40 40 40 40 40 40 41 41 41 41 42 41 41 41 41 42 42 42 43 42 42 42 42 41 39 38 36 36 35 35 34 33 32 31 31 31 30 30 31 31 29 28 27
38 39 39 39 39 39 40 40 40 41 41 41 40 41 41 41 41 42 42 41 41 40 39 36 35 35 35 34 33 32 31 30 29 29 29 29 29 29 29 29 28 27 27
37 37 37 38 39 39 40 40 40 40 41 41 41 41 41 41 41 40 40 39 38 37 36 34 33 33 33 32 30 29 28 28 27 27 27 27 27 26 27 27 27 26 26
35 36 37 38 38 39 39 40 40 41 41 42 41 41 41 40 40 39 38 36 35 34 33 32 31 30 29 28 27 26 26 25 26 26 25 25 25 25 26 25 25 25 25
35 36 37 38 38 38 39 39 39 39 39 40 40 40 40 39 38 37 35 33 32 32 31 29 28 27 26 25 24 24 24 24 24 24 23 24 24 24 24 23 23 23 22
36 37 37 37 37 38 38 38 38 38 38 38 38 38 37 36 34 33 32 31 30 29 28 27 25 24 23 23 23 22 22 22 22 23 23 23 23 22 21 21 21 20 20
37 37 37 37 37 37 37 37 37 37 37 37 36 35 33 32 31 31 30 29 28 27 26 24 23 22 22 21 20 20 21 21 21 21 21 21 20 19 18 18 18 18 19
35 35 36 36 36 36 36 36 36 36 36 35 34 33 31 30 29 29 28 27 26 25 24 23 22 21 21 20 19 19 20 20 20 19 18 17 17 16 15 15 16 16 17
35 35 35 35 35 35 35 36 35 34 34 33 31 30 29 28 27 26 26 25 24 23 22 21 20 20 19 19 19 19 19 18 17 16 16 15 15 14 14 14 14 15 15
34 34 34 34 34 34 34 34 33 32 31 30 28 27 27 26 25 24 23 22 21 20 20 20 19 18 18 17 17 17 17 16 15 15 14 13 13 13 13 14 14 14 14
33 33 33 33 33 33 32 30 29 28 27 27 26 25 25 23 22 22 21 20 20 19 19 18 18 17 17 17 17 16 16 15 14 13 12 12 12 12 12 12 13 13 14
31 31 31 30 30 29 28 27 26 25 25 24 23 23 22 21 21 20 19 19 18 18 17 17 16 16 16 16 16 15 14 14 13 12 11 11 11 10 11 11 11 11 11
29 28 28 27 26 25 24 24 23 23 22 22 21 20 20 20 20 19 18 17 16 15 14 14 15 15 15 14 13 12 12 12 12 11 10 10 10 9 8 8 8 8 8
Wind_Direction
273 274 275 276 276 277 278 280 280 281 282 284 285 285 286 286 285 284 284 284 284 284 283 283 283 283 283 283 283 281 281 281 280 278 277 277 276 276 275 274 274 274 273
273 276 277 277 277 278 279 280 281 282 282 284 285 286 287 286 286 285 285 285 284 284 284 284 284 283 284 284 282 281 281 282 281 280 278 278 277 277 276 275 275 275 275
275 277 277 278 278 278 280 281 282 283 283 284 285 286 287 287 286 286 285 285 285 285 285 285 284 284 284 283 282 282 282 282 282 281 280 279 278 278 276 276 276 276 274
276 276 278 278 279 280 281 283 284 284 285 286 286 287 287 287 287 286 286 286 286 286 286 285 285 284 284 283 283 283 283 282 282 281 281 280 279 279 278 277 276 275 274
276 277 278 279 280 282 283 284 284 285 286 287 287 287 287 287 287 287 286 286 287 286 286 286 285 285 284 283 283 283 283 283 283 282 281 280 280 279 279 279 277 275 273
277 278 279 280 281 283 284 285 286 287 287 288 288 289 288 288 288 288 287 287 287 286 287 286 286 286 284 283 284 284 284 284 284 284 283 282 281 280 280 280 278 275 274
277 278 279 281 282 283 284 286 287 288 288 289 289 290 290 289 289 289 289 289 288 287 287 287 285 286 286 284 283 284 285 285 285 285 284 283 281 280 280 279 278 277 276
277 278 280 282 283 284 285 286 287 288 289 289 290 291 290 289 288 288 289 289 288 288 288 288 287 287 287 285 283 284 285 286 286 285 284 283 282 282 281 279 277 276 275
278 279 281 282 283 284 285 286 287 288 289 290 291 291 291 290 289 289 289 289 290 290 289 289 288 288 287 287 285 285 286 286 285 284 282 282 282 281 280 278 278 277 274
279 280 282 283 284 285 286 287 288 289 291 292 292 292 291 291 291 291 291 291 291 291 290 290 290 290 288 287 286 286 287 286 285 283 281 281 281 279 278 277 277 276 273
279 281 282 283 285 286 287 288 289 290 292 293 293 293 293 292 292 293 292 292 293 292 291 291 292 291 289 287 286 287 287 287 285 283 280 280 280 279 278 277 277 275 272
280 281 282 283 285 286 287 289 290 292 293 294 295 294 294 294 294 294 293 294 294 294 293 293 293 291 290 288 286 287 287 287 285 282 282 282 281 279 277 276 274 272 270
280 281 283 284 285 287 288 290 291 293 294 295 295 295 296 295 295 294 294 295 295 295 295 295 293 291 290 289 287 287 288 287 284 283 283 282 280 279 276 274 271 269 268
281 282 283 285 286 288 289 291 292 294 295 296 296 297 297 297 296 296 296 296 296 297 298 297 294 291 290 290 288 288 288 286 284 284 283 281 279 277 274 271 268 268 269
281 282 284 285 287 288 290 291 293 294 295 296 297 297 297 297 297 298 298 299 299 299 298 298 296 293 292 290 289 290 288 286 284 284 282 281 279 276 274 271 268 267 266
281 283 285 287 288 289 291 292 293 295 296 297 297 298 298 298 299 300 300 300 299 299 298 298 297 296 294 291 290 290 288 286 285 285 284 282 279 277 275 271 268 266 264
281 284 287 289 290 291 291 292 294 295 296 297 297 297 298 299 299 300 301 300 300 300 299 298 297 296 294 292 290 288 288 288 287 286 285 283 280 277 276 272 268 265 263
284 286 288 289 290 292 293 294 295 296 297 297 298 298 298 299 300 300 301 301 301 301 300 298 297 296 294 292 291 290 289 289 289 287 285 282 279 277 274 272 267 264 261
285 287 288 290 291 293 294 295 296 297 298 298 298 298 299 299 300 300 301 302 302 302 301 299 297 296 295 292 290 290 290 290 290 289 287 284 280 277 274 271 265 261 259
286 287 289 290 292 293 294 296 296 298 299 300 300 299 298 299 300 299 300 300 300 301 300 298 296 295 294 292 291 290 292 294 293 291 288 285 281 277 274 268 261 259 259
287 288 289 291 293 294 295 296 297 297 299 300 300 299 297 298 299 299 299 299 298 298 298 296 295 294 293 293 293 293 294 295 294 292 289 286 282 277 272 266 259 260 261
288 289 290 291 293 294 295 296 297 298 299 300 300 299 299 299 300 299 298 298 297 297 296 296 295 294 293 293 293 294 295 295 294 291 288 285 281 276 271 265 263 265 264
288 289 290 291 293 294 295 297 297 298 299 299 300 299 300 300 299 299 298 297 297 297 296 297 297 296 295 294 293 294 295 296 296 294 292 288 283 279 273 268 267 267 265
288 289 291 292 292 293 295 296 297 298 299 299 299 299 300 300 299 299 299 297 295 294 295 296 296 297 297 296 295 295 295 294 293 293 293 292 285 278 274 270 268 268 265
289 290 291 292 293 293 294 295 296 297 299 301 300 299 300 301 300 299 298 297 295 294 294 295 294 295 297 295 295 295 293 290 291 292 291 291 287 283 277 272 271 269 265
288 290 290 291 292 294 294 296 297 297 299 301 301 299 299 299 299 297 296 296 295 294 295 296 297 299 300 300 298 296 291 288 288 289 290 290 287 283 279 278 276 271 269
Height
5646 5646 5645 5644 5642 5641 5640 5638 5635 5633 5631 5629 5626 5623 5621 5618 5615 5612 5609 5606 5604 5601 5598 5595 5593 5591 5588 5586 5584 5581 5579 5577 5577 5580 5578 5577 5575 5574 5573 5572 5571 5571 5572
5635 5634 5633 5632 5631 5629 5628 5625 5623 5621 5619 5616 5613 5610 5607 5604 5601 5598 5595 5592 5589 5587 5584 5581 5578 5576 5573 5571 5568 5566 5564 5562 5561 5562 5563 5561 5559 5558 5557 5556 5555 5554 5555
5624 5623 5622 5620 5619 5617 5615 5613 5611 5608 5606 5603 5600 5597 5594 5591 5588 5584 5581 5578 5575 5573 5569 5567 5564 5561 5559 5556 5553 5551 5549 5547 5545 5544 5545 5545 5543 5541 5540 5540 5539 5538 5538
5613 5612 5610 5609 5607 5605 5603 5601 5598 5595 5593 5590 5587 5584 5581 5577 5574 5571 5567 5564 5562 5559 5555 5552 5549 5546 5544 5541 5539 5537 5535 5532 5530 5529 5529 5529 5528 5526 5524 5524 5523 5523 5523
5601 5600 5599 5597 5595 5593 5590 5588 5586 5583 5580 5577 5574 5570 5567 5564 5560 5556 5553 5551 5548 5545 5541 5538 5535 5532 5529 5526 5524 5522 5520 5518 5516 5514 5514 5513 5512 5510 5509 5508 5507 5507 5508
5590 5589 5587 5586 5584 5581 5579 5576 5573 5570 5567 5564 5560 5557 5553 5550 5546 5542 5539 5537 5533 5530 5527 5524 5521 5518 5515 5512 5510 5508 5505 5503 5502 5500 5498 5497 5496 5495 5493 5491 5490 5491 5493
5580 5578 5576 5574 5572 5569 5567 5564 5561 5558 5555 5551 5547 5543 5540 5536 5532 5529 5525 5522 5519 5516 5513 5510 5508 5505 5501 5499 5497 5494 5492 5489 5487 5485 5483 5482 5481 5479 5478 5477 5475 5474 5475
5569 5567 5565 5563 5560 5558 5555 5552 5549 5545 5542 5538 5535 5531 5526 5523 5519 5515 5512 5509 5506 5502 5499 5497 5494 5491 5488 5485 5483 5481 5478 5475 5473 5470 5468 5467 5465 5464 5462 5462 5461 5461 5461
5557 5555 5553 5551 5549 5546 5543 5540 5537 5533 5530 5526 5522 5518 5514 5510 5506 5502 5499 5496 5493 5489 5486 5483 5480 5477 5474 5471 5469 5467 5465 5462 5459 5456 5454 5452 5451 5450 5449 5448 5448 5448 5449
5546 5544 5542 5540 5537 5535 5532 5528 5525 5522 5518 5514 5510 5505 5501 5498 5494 5490 5487 5484 5481 5478 5474 5470 5466 5463 5460 5457 5455 5453 5451 5449 5446 5444 5442 5440 5438 5437 5436 5435 5435 5435 5436
5535 5533 5531 5528 5526 5523 5520 5517 5514 5510 5507 5503 5499 5494 5490 5486 5482 5479 5475 5471 5468 5465 5461 5458 5454 5450 5447 5444 5442 5439 5437 5435 5433 5431 5430 5428 5426 5425 5424 5424 5424 5424 5425
5524 5522 5520 5517 5514 5512 5509 5506 5503 5499 5496 5492 5487 5483 5479 5475 5471 5467 5463 5459 5456 5452 5449 5446 5442 5438 5435 5432 5430 5427 5425 5422 5421 5420 5419 5417 5416 5415 5414 5414 5414 5415 5415
5513 5511 5508 5506 5503 5501 5498 5495 5492 5488 5484 5480 5476 5472 5469 5464 5460 5456 5452 5449 5445 5441 5437 5434 5430 5426 5424 5421 5419 5416 5414 5412 5410 5409 5409 5407 5406 5405 5405 5405 5405 5406 5407
5502 5500 5498 5495 5493 5490 5487 5484 5481 5477 5473 5470 5466 5462 5458 5454 5450 5446 5442 5438 5434 5430 5426 5423 5419 5416 5413 5411 5409 5406 5404 5402 5401 5400 5399 5398 5397 5397 5396 5396 5397 5398 5399
5491 5489 5487 5485 5482 5480 5477 5473 5470 5467 5462 5459 5455 5451 5448 5444 5439 5435 5431 5427 5423 5420 5416 5413 5410 5407 5404 5402 5399 5397 5395 5393 5392 5391 5390 5389 5389 5388 5388 5388 5389 5389 5391
5481 5479 5477 5475 5472 5469 5466 5463 5459 5456 5452 5448 5444 5440 5437 5433 5429 5425 5421 5417 5413 5409 5406 5403 5400 5398 5395 5393 5391 5389 5387 5386 5385 5383 5382 5381 5380 5380 5380 5380 5380 5382 5383
5471 5469 5467 5464 5462 5459 5456 5453 5449 5446 5441 5437 5433 5430 5426 5422 5419 5415 5411 5407 5404 5400 5397 5394 5391 5389 5387 5385 5383 5382 5381 5379 5377 5376 5375 5374 5373 5373 5373 5373 5373 5374 5375
5461 5459 5457 5454 5451 5448 5445 5442 5439 5435 5432 5427 5423 5419 5416 5412 5409 5405 5402 5399 5395 5392 5389 5386 5384 5381 5379 5378 5376 5375 5373 5372 5371 5369 5368 5367 5366 5366 5365 5366 5366 5367 5368
5451 5449 5446 5444 5441 5438 5435 5432 5428 5425 5421 5418 5414 5410 5407 5403 5400 5396 5393 5390 5387 5384 5381 5379 5377 5375 5373 5371 5370 5369 5367 5366 5364 5363 5362 5360 5359 5359 5359 5359 5359 5360 5361
5441 5439 5436 5433 5431 5428 5425 5422 5418 5415 5412 5409 5405 5402 5398 5395 5392 5388 5385 5382 5380 5377 5375 5372 5370 5368 5367 5366 5364 5363 5362 5360 5358 5357 5355 5354 5353 5353 5352 5353 5353 5354 5355
5431 5428 5426 5423 5421 5418 5415 5412 5409 5406 5403 5400 5396 5393 5390 5387 5384 5381 5378 5375 5373 5371 5369 5367 5365 5363 5362 5360 5359 5358 5356 5354 5353 5351 5350 5349 5348 5347 5347 5347 5348 5349 5350
5421 5419 5416 5414 5411 5409 5406 5403 5400 5397 5394 5391 5388 5385 5382 5379 5376 5374 5371 5369 5366 5364 5363 5361 5359 5358 5357 5355 5354 5353 5351 5349 5348 5346 5345 5344 5343 5343 5343 5343 5343 5344 5345
5412 5410 5407 5405 5402 5400 5397 5394 5391 5388 5385 5383 5380 5377 5374 5372 5369 5367 5365 5363 5361 5359 5357 5356 5354 5353 5352 5350 5349 5347 5346 5345 5343 5342 5341 5340 5339 5338 5338 5339 5339 5340 5340
5403 5400 5398 5396 5393 5391 5388 5385 5383 5380 5377 5375 5372 5370 5367 5365 5363 5361 5359 5357 5355 5354 5352 5351 5349 5348 5347 5346 5344 5343 5341 5340 5339 5338 5337 5336 5335 5335 5335 5335 5335 5336 5336
5394 5391 5389 5387 5385 5382 5380 5378 5375 5373 5371 5368 5366 5363 5361 5359 5357 5355 5353 5352 5350 5349 5347 5346 5345 5344 5342 5341 5340 5338 5337 5336 5336 5335 5334 5333 5332 5332 5331 5331 5332 5332 5333
5385 5383 5381 5379 5377 5375 5373 5371 5369 5366 5364 5362 5360 5358 5356 5354 5352 5350 5348 5347 5345 5344 5343 5342 5341 5340 5338 5337 5336 5335 5334 5333 5333 5332 5331 5331 5330 5330 5329 5329 5329 5329 5330